Weather Roundup
Issued by NWS

Home | Current Version | Previous Version | Graphics & Text | Print | Product List | Glossary Off
Versions: 1 2 3 4 5 6 7 8 9 10 11 12 13 14 15 16 17 18 19 20 21 22 23 24 25 26 27 28 29 30 31 32 33 34 35 36 37 38 39 40 41 42 43 44 45 46 47 48 49 50

000
NZUS93 KARX 202159
HRRWXR

CURRENT HOURLY OBSERVATIONS ACROSS
MUCH OF THE UPPER MISSISSIPPI VALLEY
NATIONAL WEATHER SERVICE LA CROSSE WI
500 PM CDT WED AUG 20 2014


...SOUTHEAST MINNESOTA...


CITY           SKY/WX    TMP DP  RH WIND       PRES   REMARKS
ROCHESTER      PTSUNNY   82  66  58 E3        29.88R
ROCHESTER/MAYO FAIR      82  59  45 CALM      29.86S
WINONA         PTSUNNY   81  64  57 CALM      29.85S
AUSTIN         MOSUNNY   79  66  65 S8        29.87R
ALBERT LEA     MOSUNNY   81  68  65 S5        29.86S
DODGE CENTER   PTSUNNY   81  70  69 SE3       29.87R
PRESTON        PTSUNNY   81  71  71 S3        29.88R
OWATONNA       PTSUNNY   81  66  61 S6        29.85S
FARIBAULT      CLOUDY    84  63  48 S3        29.85S
$$

...ELSEWHERE IN MINNESOTA...


CITY           SKY/WX    TMP DP  RH WIND       PRES   REMARKS
MINNEAPOLIS    CLOUDY    83  65  54 E9        29.84F
INTNL FALLS    MOSUNNY   75  59  57 SE5       29.88F
DULUTH         PTSUNNY   70  58  65 SE8       29.92R
RED WING       CLOUDY    81  64  57 CALM      29.84S
REDWOOD FALLS  MOSUNNY   84  67  56 SE15      29.80S
MANKATO        PTSUNNY   82  64  54 S9        29.83R
WORTHINGTON    PTSUNNY   81  19  10 S8        29.84R
FAIRMONT       PTSUNNY   79  66  65 S13       29.84S
$$

...SOUTHWEST WISCONSIN...


CITY           SKY/WX    TMP DP  RH WIND       PRES   REMARKS
LA CROSSE      PTSUNNY   85  66  53 N6        29.84F
PRAIRIE DU CHI PTSUNNY   82  64  54 S6        29.85S
BOSCOBEL       PTSUNNY   84  65  52 SW3       29.86R
LONE ROCK      NOT AVBL
PLATTEVILLE    MOSUNNY   81  67  62 SW8       29.90R
FORT MC COY    PTSUNNY   81  64  54 N5        29.87F
VIROQUA        FAIR      80  65  60 CALM      29.88F
WIS DELLS      MOSUNNY   83  60  44 NW6       29.87S
$$

...ELSEWHERE IN WISCONSIN...


CITY           SKY/WX    TMP DP  RH WIND       PRES   REMARKS
MILWAUKEE      MOSUNNY   74  66  76 E12       29.87S
MADISON        PTSUNNY   83  65  54 W5        29.86S
GREEN BAY      MOSUNNY   74  62  66 CALM      29.89F
EAU CLAIRE     NOT AVBL
BLACK RVR FLS  FAIR      81  62  52 CALM      29.87S
MEDFORD        PTSUNNY   70  60  70 W3        29.93R
WAUSAU         PTSUNNY   75  61  61 VRB3      29.90R
WIS RAPIDS     MOSUNNY   78  63  59 N6        29.91R
MARSHFIELD     MOSUNNY   76  62  62 W7        29.91R
RICE LAKE      PTSUNNY   74  61  63 W3        29.92R
$$

...NORTHEAST IOWA...


CITY           SKY/WX    TMP DP  RH WIND       PRES   REMARKS
WATERLOO       CLOUDY    74  67  78 S3        29.88R
DUBUQUE        PTSUNNY   79  68  69 SW14      29.90R
DECORAH        NOT AVBL
MASON CITY     CLOUDY    76  67  73 S7        29.89R
CHARLES CITY   PTSUNNY   77  68  73 S8        29.89R
OELWEIN        CLOUDY    73  70  88 SW10      29.91R
$$

...ELSEWHERE IN IOWA...


CITY           SKY/WX    TMP DP  RH WIND       PRES   REMARKS
DES MOINES     CLOUDY    83  71  67 S9        29.86R
IOWA CITY      CLOUDY    74  69  85 S6        29.91F
FORT DODGE     CLOUDY    73  70  88 S7        29.87R
MARSHALLTOWN   CLOUDY    74  68  81 S8        29.86S
CEDAR RAPIDS   CLOUDY    73  69  87 S9        29.88R
$$

...NORTHERN ILLINOIS...


CITY           SKY/WX    TMP DP  RH WIND       PRES   REMARKS
CHICAGO-OHARE  PTSUNNY   85  63  47 W12       29.87R
DUPAGE         MOSUNNY   84  66  54 SW9       29.88R
CHICAGO-MIDWAY PTSUNNY   86  66  51 SW9       29.86S
MOLINE         CLOUDY    75  68  78 SW12      29.92R
ROCKFORD       PTSUNNY   85  66  53 S12       29.90R
STERLING       MOSUNNY   81  70  69 SW7       29.90S
PEORIA         CLOUDY    79  68  69 W6        29.95R
$$

NOTE: "FAIR" INDICATES FEW OR NO CLOUDS BELOW 12,000 FEET WITH NO
SIGNIFICANT WEATHER AND/OR OBSTRUCTIONS TO VISIBILITY. WIND
SPEEDS ARE IN MILES-PER-HOUR.



USA.gov is the U.S. government's official web portal to all federal, state and local government web resources and services.